Location: Maiden
(35.5760°N, 81.2120°W)
Time: 03:19:43
(UTC-04:00)

IRIDIUM 104 - Pass Details

Date: 02 August 2020
Orbit: 776 x 779 km, 86.4° (Epoch: 11 August)

Event Time Altitude Azimuth Distance (km) Brightness Sun altitude
Exits shadow 22:07:23 27° 163° (SSE) 1,457 5.3 -18.4°
Maximum altitude 22:10:11 65° 89° (E) 851 4.3 -18.8°
Drops below altitude 10° 22:15:21 10° 8° (N) 2,332 7.2 -19.6°
Sets 22:17:43 0° 6° (N) 3,263 8.1 -20.0°
